#timestamp,LO_Frequency,Hit,StdDev 
1622113215.8,286046990.3,N
1622113235.7,286046991.0,N
1622113255.5,286046990.8,N
1622113275.3,286046991.1,N
1622113295.2,286046991.7,N
1622113315.0,286046993.5,N
1622113315.9,286046993.5,N
1622113335.8,286046990.7,N
1622113355.6,286046991.5,N
1622113375.4,286046991.1,N
1622113395.3,286046988.7,Y
1622113415.1,286046996.3,P
1622113435.8,286046995.4,N
1622113455.7,286046995.0,P
1622113475.5,286046997.0,N
1622113495.4,286046997.6,N
1622113515.2,286046999.0,N
1622113535.0,286046999.5,N
1622113535.9,286046999.5,N
1622113555.8,286046997.3,N
1622113575.6,286046994.0,N
1622113595.5,286046993.7,N
1622113615.3,286046993.8,N
1622113635.1,286046995.9,N
1622113655.9,286046995.2,N
1622113675.7,286046997.2,N
1622113695.5,286046999.4,N
1622113715.4,286046999.0,N
1622113735.2,286046999.4,N
1622113755.1,286046999.1,N
1622113756.0,286046999.1,N
1622113775.8,286046999.5,N
1622113795.6,286046995.0,N
1622113815.5,286046995.1,N
1622113835.3,286046995.6,N
1622113855.1,286046994.1,N
1622113875.9,286046992.2,Y
1622113895.7,286046996.1,P
1622113915.6,286046995.4,P
1622113935.4,286046996.4,P
1622113955.2,286046996.4,Y
1622113975.1,286046996.5,P
1622113976.0,286046996.5,P
1622113995.8,286046995.2,P
1622114015.7,286046995.5,Y
1622114035.5,286047001.0,P
1622114055.3,286046998.4,N
1622114075.2,286046996.6,N
1622114095.0,286046997.3,N
1622114095.9,286046997.3,N
1622114115.7,286046997.3,N
1622114135.6,286046997.2,N
1622114155.4,286046997.6,N
1622114175.3,286046997.3,N
1622114195.1,286046997.4,N
1622114196.0,286046997.4,N
1622114215.8,286046995.0,Y
1622114235.7,286046999.5,P
1622114255.5,286046996.9,P
1622114275.4,286046994.9,P
1622114295.2,286046995.0,Y
1622114315.0,286046997.3,P
1622114315.9,286046997.3,P
1622114335.8,286046995.5,P
1622114355.6,286046995.6,Y
1622114375.5,286046998.9,P
1622114395.3,286047000.9,N
1622114415.1,286046998.8,N
1622114435.9,286046999.6,N
1622114455.7,286046999.3,N
1622114475.5,286046999.0,N
1622114495.4,286046999.5,N
1622114515.2,286046999.5,N
1622114535.1,286046999.6,N
1622114536.0,286046999.6,N
1622114555.8,286046997.2,Y
1622114575.6,286046996.7,P
1622114595.5,286046999.0,N
1622114615.3,286046997.1,N
1622114635.1,286046998.0,N
1622114655.9,286046993.7,Y
1622114675.7,286046998.0,P
1622114695.6,286046995.3,P
1622114715.4,286046997.9,N
1622114735.2,286046997.7,N
1622114755.1,286046995.8,Y
1622114756.0,286046995.8,P
1622114775.8,286046998.3,N
1622114795.7,286047000.7,N
1622114815.5,286047000.7,N
1622114835.3,286047000.8,N
1622114855.2,286046998.2,N
1622114875.0,286047002.3,N
1622114875.9,286047002.3,N
1622114895.8,286047002.3,N
1622114915.6,286047001.7,N
1622114935.4,286047004.1,N
1622114955.3,286047000.8,N
1622114975.1,286047001.2,N
1622114995.8,286046997.2,N
1622115015.7,286046998.2,N
1622115035.5,286047000.1,N
1622115055.4,286047002.6,N
1622115075.2,286046999.7,N
1622115095.0,286047002.1,N
1622115095.9,286047002.1,N
1622115115.8,286047001.6,N
1622115135.6,286047002.5,N
1622115155.4,286047003.8,N
1622115175.3,286047001.9,N
1622115195.1,286047000.8,N
1622115215.9,286046997.1,N
1622115235.7,286046997.5,N
1622115255.5,286046997.3,N
1622115275.4,286046996.4,N
1622115295.2,286046992.8,Y
1622115315.1,286046992.0,P
1622115316.0,286046992.0,N
1622115335.8,286046995.9,N
1622115355.6,286046996.1,N
1622115375.5,286046996.2,N
1622115395.3,286046994.6,N
1622115415.1,286046990.1,Y
1622115435.9,286046995.4,P
1622115455.7,286046995.0,P
1622115475.6,286046995.4,P
1622115495.4,286046995.5,Y
1622115515.2,286046999.4,P
1622115535.1,286047000.7,N
1622115536.0,286047000.7,N
1622115555.8,286047001.1,N
1622115575.7,286046999.0,N
1622115595.5,286047002.4,N
1622115615.3,286047003.6,N
1622115635.2,286047004.0,N
1622115655.9,286047004.0,N
1622115675.7,286047000.6,N
1622115695.6,286047001.0,N
1622115715.4,286047002.1,N
1622115765.3,286046998.5,E
1622115775.2,286047000.6,N
1622115795.0,286047000.1,P
1622115795.9,286047000.1,N
1622115815.8,286046998.5,Y
1622115835.6,286046999.0,P
1622115855.5,286046997.7,P
1622115875.3,286046996.2,P
1622115895.1,286046996.3,N
1622115915.9,286046996.0,N
1622115935.7,286046993.5,Y
1622115955.6,286046998.0,P
1622115975.4,286046995.0,P
1622115995.2,286046995.6,P
1622116015.1,286046995.1,Y
1622116016.0,286046995.1,P
1622116035.8,286047001.2,N
1622116055.7,286046998.3,N
1622116075.5,286047001.0,N
1622116095.3,286047000.9,N
1622116115.2,286046998.1,N
1622116135.9,286046996.9,N
1622116155.7,286046996.9,N
1622116175.6,286046997.0,N
1622116195.4,286046997.2,N
1622116215.3,286046996.6,N
1622116235.1,286046996.6,N
1622116236.0,286046996.6,N
1622116255.8,286046995.0,N
1622116275.7,286046996.1,N
1622116295.5,286046995.7,N
1622116315.4,286046995.5,N
1622116335.2,286046996.2,N
1622116355.0,286046993.8,Y
1622116355.9,286046993.8,P
1622116375.8,286046998.0,N
1622116395.6,286046995.9,N
1622116415.5,286046994.1,Y
1622116435.3,286046997.1,P
1622116455.1,286046995.2,P
1622116475.9,286046995.0,P
1622116495.7,286046995.6,Y
1622116515.5,286046999.0,P
1622116535.4,286047000.7,N
1622116555.2,286046998.7,N
1622116575.1,286046998.8,N
1622116576.0,286046998.8,N
1622116595.8,286046998.6,N
1622116615.6,286046998.8,N
1622116635.5,286046997.1,N
1622116655.3,286046997.5,N
1622116675.2,286046995.3,Y
1622116695.9,286046996.8,P
1622116715.7,286046997.5,P
1622116735.6,286046997.7,P
1622116755.4,286046996.0,Y
1622116775.2,286046996.9,P
1622116795.1,286047001.2,P
1622116796.0,286047001.2,N
